Location: Clandonald
(53.5720°N, 110.7141°W)
Time: 23:58:03
(UTC+00:00)

OTV 5 (USA 277) - Visible Passes

Search period start: 16 October 2019 00:00
Search period end: 26 October 2019 00:00
Orbit: 310 x 324 km, 54.5° (Epoch: 08 October)

Date Brightness Start Highest point End Pass type
(mag) Time Alt. Az. Time Alt. Az. Time Alt. Az.
16 Oct ? 11:41:47 42° ESE 11:41:47 42° ESE 11:43:45 10° ESE visible
16 Oct ? 13:12:54 10° W 13:15:01 19° SW 13:17:04 10° SSE visible
17 Oct ? 11:56:07 38° SSE 11:56:07 38° SSE 11:58:10 10° SE visible
18 Oct ? 12:10:32 24° S 12:10:32 24° S 12:12:18 10° SSE visible
19 Oct ? 12:25:04 13° SSW 12:25:04 13° SSW 12:25:52 10° S visible
